www.pogodaiklimat.ru

Погода и климат >> Архив погоды >> Венгрия >> Шармеллек


ПОГОДА в Шармеллеке

  • Прогноз погоды в Шармеллеке
  • Монитор погоды в Шармеллеке

АРХИВ ПОГОДЫ в Шармеллеке

Время (UTC), дата Ветер
(напр.,м/с)
 
Видим.   Явления Облачность Т
(С)
Тd
(С)
f
(%)
Тe
(С)
Тes
(С)
Комфортность P
(гПа)
Po
(гПа)
Тmin
(С)
Tmax
(С)
R
(мм)
R24
(мм)
S
(см)
16 18.06 В 1 н/о н/о +26.8 +18.1 59 +31 +31 душно 1013.7 999.9
17 18.06 З 1 н/о н/о +26.5 +18.9 63 +32 +32 очень
душно
1013.9 1000.0
18 18.06 З 1 н/о н/о +24.2 +20.1 78 +30 +30 очень
душно
1014.2 1000.2 +27.7
19 18.06 СЗ 2 н/о н/о +22.6 +19.6 83 +29 +29 очень
душно
1014.2 1000.2
20 18.06 З 2 н/о н/о +21.6 +19.3 87 +27 +27 душно 1014.7 1000.6
21 18.06 СЗ 1 н/о н/о +21.1 +19.7 92 +26 +26 душно 1014.4 1000.3
22 18.06 СЗ 1 н/о н/о +20.4 +19.2 93 +25 +25 комфорт 1014.4 1000.3
23 18.06 СЗ 1 н/о н/о +19.8 +19.0 95 +24 +24 комфорт 1014.4 1000.2
00 19.06 З 1 н/о н/о +19.1 +18.6 97 +22 +22 комфорт 1013.9 999.7
01 19.06 С 1 н/о н/о +19.9 +19.1 95 +24 +24 комфорт 1013.8 999.6
02 19.06 З 3 н/о н/о +18.9 +17.7 93 +21 +21 комфорт 1013.7 999.5
03 19.06 штиль 0 н/о н/о +18.8 +18.3 97 +20 +20 1013.4 999.2
04 19.06 ЮЗ 1 н/о н/о +18.8 +18.5 98 +21 +21 комфорт 1013.5 999.3
05 19.06 штиль 0 н/о н/о +19.7 +19.0 96 +22 +22 комфорт 1013.6 999.4
06 19.06 ЮВ 1 н/о н/о +22.7 +19.5 82 +29 +29 очень
душно
1013.6 999.6 +18.7 5
07 19.06 Ю 1 н/о н/о +23.2 +20.2 83 +30 +30 очень
душно
1013.7 999.7
08 19.06 Ю 2 н/о н/о +24.4 +20.1 77 +30 +30 очень
душно
1013.5 999.6
09 19.06 Ю 2 н/о н/о +26.2 +20.3 70 +32 +32 очень
душно
1013.0 999.1
10 19.06 ЮЗ 2 н/о н/о +26.4 +20.5 70 +33 +33 очень
душно
1012.6 998.8
11 19.06 ЮЗ 2 н/о н/о +26.5 +19.1 64 +32 +32 очень
душно
1011.9 998.1
12 19.06 Ю 6
{11}
н/о н/о +17.9 +17.6 98 +17 +17 1012.8 998.6 13
13 19.06 ЮЗ 3 н/о н/о +18.8 +18.6 99 +20 +20 1013.8 999.6
14 19.06 В 1 н/о н/о +19.3 +18.8 97 +23 +23 комфорт 1012.2 998.0
15 19.06 ЮВ 1 н/о н/о +22.1 +19.6 86 +28 +28 душно 1010.6 996.6
16 19.06 ЮВ 1 н/о н/о +22.5 +19.5 83 +29 +29 очень
душно
1010.3 996.3
17 19.06 В 1 н/о н/о +23.5 +20.2 82 +29 +29 душно 1010.6 996.7
18 19.06 В 1 н/о н/о +22.0 +20.5 91 +28 +28 душно 1010.7 996.7 +27.3 21
19 19.06 штиль 0 н/о н/о +21.5 +20.7 95 +27 +27 душно 1010.5 996.5
20 19.06 В 4 н/о н/о +17.8 +17.2 96 +18 +18 1011.5 997.3
21 19.06 ЮВ 2 н/о н/о +17.7 +16.6 93 +18 +18 1011.3 997.1
22 19.06 З 1 н/о н/о +17.1 +16.8 98 +18 +18 1011.7 997.4
00 20.06 штиль 0 н/о н/о +16.8 +16.3 97 +17 +17 1011.6 997.3 11
01 20.06 СВ 1 н/о н/о +16.5 +16.2 98 +17 +17 1011.7 997.4
02 20.06 Ю 2 н/о н/о +16.2 +16.2 100 +16 +16 1011.2 996.9
03 20.06 З 1 н/о н/о +15.9 +15.9 100 +17 +17 1011.1 996.8
04 20.06 штиль 0 н/о н/о +15.5 +15.5 100 +15 +15 1011.2 996.9
05 20.06 штиль 0 н/о н/о +16.7 +16.7 100 +17 +17 1011.5 997.2
06 20.06 штиль 0 н/о н/о +19.1 +18.4 96 +21 +21 комфорт 1012.3 998.1 +15.3 11
07 20.06 ЮВ 1 н/о н/о +21.4 +17.6 79 +26 +26 душно 1012.1 998.0
08 20.06 ЮВ 1 н/о н/о +23.2 +18.5 75 +29 +29 душно 1012.0 998.0
09 20.06 Ю 1 н/о н/о +25.1 +17.6 63 +29 +29 душно 1012.2 998.3
10 20.06 Ю 1 н/о н/о +25.7 +19.1 67 +31 +31 очень
душно
1012.2 998.3
11 20.06 СВ 1 н/о н/о +26.6 +19.7 66 +32 +32 очень
душно
1012.2 998.4
12 20.06 Ю 2 н/о н/о +27.5 +18.8 59 +33 +33 очень
душно
1011.5 997.7
13 20.06 З 1 н/о н/о +28.0 +17.2 52 +32 +32 душно 1011.2 997.5
14 20.06 ЮВ 1 н/о н/о +28.3 +18.1 54 +33 +33 очень
душно
1010.5 996.8
15 20.06 штиль 0 н/о н/о +29.4 +17.2 48 +33 +33 душно 1010.0 996.3
16 20.06 Ю 1 н/о н/о +29.2 +17.7 50 +34 +34 очень
душно
1010.0 996.3
17 20.06 штиль 0 н/о н/о +28.8 +18.3 53 +34 +34 очень
душно
1010.4 996.7
18 20.06 штиль 0 н/о н/о +27.6 +20.7 66 +34 +34 очень
душно
1010.9 997.1 +29.9
19 20.06 ЮВ 1 н/о н/о +24.6 +19.0 71 +30 +30 очень
душно
1011.2 997.3
20 20.06 штиль 0 н/о н/о +22.7 +19.5 82 +29 +29 очень
душно
1011.5 997.5
21 20.06 С 1 н/о н/о +20.8 +20.0 95 +27 +27 душно 1012.3 998.2
22 20.06 СЗ 2 н/о н/о +20.5 +19.7 95 +25 +25 комфорт 1012.9 998.8
23 20.06 СЗ 1 н/о н/о +19.5 +19.0 97 +23 +23 комфорт 1012.8 998.6
00 21.06 С 6
{8}
н/о н/о +20.1 +18.9 93 +23 +23 комфорт 1013.3 999.2
01 21.06 С 5 н/о н/о +19.8 +16.8 83 +22 +22 комфорт 1014.0 999.8
02 21.06 С 3 н/о н/о +19.3 +15.8 80 +21 +21 комфорт 1014.6 1000.4
03 21.06 З 1 н/о н/о +18.2 +16.2 88 +20 +20 1014.5 1000.2
04 21.06 З 1 н/о н/о +17.8 +16.3 91 +19 +19 1014.6 1000.3
05 21.06 СЗ 3 н/о н/о +18.4 +16.9 91 +19 +19 1014.8 1000.6
06 21.06 С 4
{8}
н/о н/о +19.4 +17.5 89 +21 +21 комфорт 1016.2 1002.0 +17.7
07 21.06 СВ 3 н/о н/о +20.7 +16.9 79 +25 +25 комфорт 1016.5 1002.3
08 21.06 С 4 н/о н/о +22.8 +15.9 65 +27 +27 душно 1016.5 1002.4
09 21.06 С 3
{7}
н/о н/о +23.4 +16.0 63 +28 +28 душно 1016.7 1002.7
10 21.06 С 3 н/о н/о +25.3 +17.5 62 +29 +29 душно 1016.3 1002.4
11 21.06 С 2 н/о н/о +25.9 +17.5 60 +30 +30 душно 1016.2 1002.3
12 21.06 СЗ 2 н/о н/о +26.2 +17.6 59 +30 +30 душно 1015.7 1001.8
13 21.06 С 2 н/о н/о +27.0 +18.0 58 +32 +32 очень
душно
1015.2 1001.4
14 21.06 С 2 н/о н/о +26.7 +18.0 59 +31 +31 душно 1014.9 1001.0
15 21.06 СЗ 2 н/о н/о +27.8 +18.5 57 +33 +33 очень
душно
1014.5 1000.7
16 21.06 З 1 н/о н/о +27.9 +17.4 53 +32 +32 душно 1014.6 1000.8
17 21.06 С 1 н/о н/о +27.6 +17.5 54 +32 +32 очень
душно
1014.5 1000.7
18 21.06 В 1 н/о н/о +24.6 +18.3 68 +29 +29 душно 1014.8 1000.8 +28.1
19 21.06 З 1 н/о н/о +22.6 +19.4 82 +29 +29 очень
душно
1015.5 1001.4
20 21.06 штиль 0 н/о н/о +22.3 +19.8 86 +28 +28 душно 1015.9 1001.8
21 21.06 СЗ 1 н/о н/о +20.8 +19.5 92 +26 +26 душно 1016.3 1002.1
22 21.06 СЗ 1 н/о н/о +20.2 +19.0 93 +25 +25 комфорт 1016.4 1002.2
23 21.06 СЗ 1 н/о н/о +19.5 +18.3 93 +23 +23 комфорт 1016.5 1002.3
00 22.06 СЗ 1 н/о н/о +18.7 +18.0 96 +21 +21 комфорт 1016.5 1002.2
01 22.06 С 2 н/о н/о +18.6 +17.8 95 +20 +20 1016.8 1002.5
02 22.06 СЗ 2 н/о н/о +18.2 +17.6 96 +19 +19 1016.7 1002.4
03 22.06 СЗ 2 н/о н/о +18.1 +17.6 97 +19 +19 1017.1 1002.8
04 22.06 СЗ 3 н/о н/о +18.4 +17.9 97 +19 +19 1016.9 1002.6
05 22.06 СЗ 3 н/о н/о +19.8 +18.6 93 +23 +23 комфорт 1017.0 1002.8
06 22.06 СЗ 4 н/о н/о +21.7 +19.3 86 +27 +27 душно 1017.1 1003.0 +18.1
07 22.06 С 5 н/о н/о +22.9 +18.4 76 +29 +29 очень
душно
1017.5 1003.4
08 22.06 СВ 4 н/о н/о +24.9 +19.3 71 +30 +30 душно 1017.1 1003.1
09 22.06 СВ 2 н/о н/о +26.9 +19.3 63 +32 +32 очень
душно
1016.9 1003.0
10 22.06 С 5 н/о н/о +26.2 +20.3 70 +32 +32 очень
душно
1017.2 1003.3
11 22.06 С 3 н/о н/о +25.8 +18.2 63 +30 +30 душно 1016.8 1002.9
12 22.06 СВ 3 н/о н/о +26.5 +19.6 66 +32 +32 очень
душно
1015.5 1001.6
13 22.06 С 2 н/о н/о +26.3 +19.9 68 +32 +32 очень
душно
1015.3 1001.4
14 22.06 СВ 2 н/о н/о +25.7 +19.8 70 +31 +31 очень
душно
1014.4 1000.5
15 22.06 З 7
{16}
н/о н/о +17.5 +16.2 92 +17 +17 1016.4 1002.1
16 22.06 Ю 1 н/о н/о +18.4 +16.9 91 +20 +20 1016.3 1002.0
17 22.06 В 2 н/о н/о +17.7 +17.1 96 +18 +18 1014.5 1000.2
18 22.06 З 1 н/о н/о +18.1 +17.6 97 +19 +19 1014.5 1000.2 +27.1 13
19 22.06 С 1 н/о н/о +18.1 +17.6 97 +19 +19 1014.2 999.9
20 22.06 З 1 н/о н/о +17.8 +17.5 98 +19 +19 1014.6 1000.3
21 22.06 ЮЗ 1 н/о н/о +17.8 +17.6 99 +19 +19 1014.8 1000.5
22 22.06 ЮЗ 1 н/о н/о +17.3 +17.1 99 +18 +18 1015.1 1000.8
23 22.06 З 1 н/о н/о +17.3 +17.1 99 +18 +18 1015.1 1000.8
00 23.06 З 1 н/о н/о +17.4 +17.2 99 +18 +18 1014.9 1000.6
01 23.06 С 1 н/о н/о +17.5 +17.3 99 +19 +19 1014.6 1000.3
02 23.06 С 2 н/о н/о +17.6 +17.4 99 +18 +18 1014.2 999.9
03 23.06 С 2 н/о н/о +17.6 +17.3 98 +18 +18 1014.1 999.8
04 23.06 З 2 н/о н/о +17.5 +17.2 98 +18 +18 1014.6 1000.3
05 23.06 С 2 н/о н/о +17.5 +17.3 99 +18 +18 1014.3 1000.0
06 23.06 С 1 н/о н/о +18.0 +17.8 99 +19 +19 1015.0 1000.7 +17.3 5
07 23.06 СВ 2 н/о н/о +18.1 +17.8 98 +19 +19 1015.0 1000.7
08 23.06 С 2 н/о н/о +18.3 +18.1 99 +19 +19 1015.2 1000.9
09 23.06 С 2 н/о н/о +18.9 +18.6 98 +21 +21 комфорт 1015.2 1001.0
10 23.06 С 1 н/о н/о +20.1 +19.1 94 +25 +25 комфорт 1015.3 1001.1
11 23.06 СВ 3 н/о н/о +20.9 +18.5 86 +26 +26 душно 1015.3 1001.2
12 23.06 С 2 н/о н/о +22.5 +18.7 79 +28 +28 душно 1015.3 1001.2 11
13 23.06 штиль 0 н/о н/о +22.3 +18.1 77 +27 +27 душно 1015.1 1001.0
14 23.06 С 2 н/о н/о +19.5 +19.2 98 +23 +23 комфорт 1015.4 1001.2
15 23.06 СЗ 2 н/о н/о +20.1 +19.4 96 +24 +24 комфорт 1015.1 1000.9
16 23.06 С 4 н/о н/о +20.0 +18.7 92 +23 +23 комфорт 1015.3 1001.1
17 23.06 СЗ 2 н/о н/о +20.1 +18.9 93 +24 +24 комфорт 1015.1 1000.9
18 23.06 СЗ 2 н/о н/о +19.3 +18.6 96 +22 +22 комфорт 1015.3 1001.1 +22.7 31
19 23.06 СЗ 2 н/о н/о +18.7 +18.2 97 +20 +20 1015.4 1001.2
20 23.06 СЗ 3 н/о н/о +18.8 +18.3 97 +20 +20 1016.6 1002.3
21 23.06 С 3 н/о н/о +18.8 +18.5 98 +20 +20 1016.4 1002.2
22 23.06 С 3 н/о н/о +18.7 +18.4 98 +20 +20 1017.1 1002.8
23 23.06 С 3 н/о н/о +18.5 +18.3 99 +20 +20 1017.2 1002.9
00 24.06 С 3 н/о н/о +19.0 +18.5 97 +21 +21 комфорт 1017.6 1003.3
01 24.06 С 4 н/о н/о +18.7 +18.4 98 +20 +20 1017.4 1003.1
02 24.06 С 4 н/о н/о +18.8 +18.5 98 +20 +20 1017.7 1003.4
03 24.06 С 2 н/о н/о +18.5 +18.2 98 +20 +20 1017.8 1003.5
04 24.06 С 3 н/о н/о +18.8 +18.3 97 +20 +20 1018.0 1003.7
05 24.06 С 5 н/о н/о +18.7 +18.2 97 +20 +20 1018.2 1003.9
06 24.06 С 6
{8}
н/о н/о +19.9 +18.0 89 +22 +22 комфорт 1018.6 1004.4 +18.3 0.4
07 24.06 С 6 н/о н/о +20.9 +18.1 84 +25 +25 комфорт 1018.8 1004.6
08 24.06 С 5 н/о н/о +22.6 +18.8 79 +28 +28 душно 1018.8 1004.7
09 24.06 С 5
{8}
н/о н/о +24.3 +18.5 70 +29 +29 душно 1019.1 1005.1
10 24.06 С 4 н/о н/о +25.1 +18.8 68 +30 +30 душно 1019.1 1005.1
11 24.06 С 4 н/о н/о +26.1 +19.0 65 +31 +31 очень
душно
1019.2 1005.3
12 24.06 С 5
{9}
н/о н/о +27.1 +18.9 61 +32 +32 очень
душно
1018.9 1005.0
13 24.06 С 5 н/о н/о +27.1 +18.7 60 +32 +32 очень
душно
1019.0 1005.1
14 24.06 С 5 н/о н/о +27.5 +18.8 59 +33 +33 очень
душно
1018.9 1005.0
15 24.06 С 6
{10}
н/о н/о +27.4 +19.0 60 +33 +33 очень
душно
1018.7 1004.8
16 24.06 С 5 н/о н/о +27.7 +18.7 58 +33 +33 очень
душно
1018.6 1004.7
17 24.06 С 4 н/о н/о +27.4 +18.4 58 +32 +32 очень
душно
1018.6 1004.7
18 24.06 С 3 н/о н/о +25.7 +19.4 68 +32 +32 очень
душно
1019.6 1005.6 +27.8
19 24.06 С 2 н/о н/о +24.5 +19.3 73 +30 +30 очень
душно
1019.8 1005.8
20 24.06 СЗ 1 н/о н/о +23.4 +19.6 79 +30 +30 очень
душно
1020.5 1006.4
21 24.06 СЗ 1 н/о н/о +22.0 +19.7 87 +28 +28 душно 1021.1 1006.9
22 24.06 С 2 н/о н/о +21.7 +19.8 89 +27 +27 душно 1021.3 1007.1
23 24.06 З 1 н/о н/о +21.2 +20.0 93 +26 +26 душно 1021.5 1007.3
00 25.06 СЗ 2 н/о н/о +20.9 +20.1 95 +26 +26 душно 1021.5 1007.3
01 25.06 СЗ 1 н/о н/о +20.3 +19.5 95 +25 +25 комфорт 1021.5 1007.3
02 25.06 СЗ 2 н/о н/о +19.7 +18.9 95 +23 +23 комфорт 1021.6 1007.3
03 25.06 СЗ 2 н/о н/о +18.9 +18.6 98 +21 +21 комфорт 1021.8 1007.5
04 25.06 СЗ 2 н/о н/о +18.9 +18.4 97 +21 +21 комфорт 1021.8 1007.5
05 25.06 СЗ 2 н/о н/о +20.0 +19.2 95 +24 +24 комфорт 1022.1 1007.8
06 25.06 СВ 1 н/о н/о +23.7 +20.0 80 +29 +29 душно 1022.4 1008.3 +18.7
07 25.06 В 2 н/о н/о +24.7 +19.1 71 +30 +30 очень
душно
1022.6 1008.5
08 25.06 СВ 2 н/о н/о +25.7 +19.8 70 +31 +31 очень
душно
1022.7 1008.7
09 25.06 н/о н/о +27.0 +20.4 67 1022.7 1008.8
10 25.06 В 1 н/о н/о +27.8 +20.9 66 +35 +35 очень
душно
1022.8 1008.9
11 25.06 СВ 2 н/о н/о +28.8 +20.8 62 +36 +36 очень
душно
1022.8 1008.9
12 25.06 В 3 н/о н/о +28.9 +19.8 58 +35 +35 очень
душно
1022.7 1008.8
13 25.06 В 4 н/о н/о +29.4 +19.7 56 +35 +35 очень
душно
1022.5 1008.7
14 25.06 В 2 н/о н/о +29.7 +20.0 56 +36 +36 очень
душно
1022.5 1008.7
15 25.06 В 3 н/о н/о +29.9 +20.5 57 +37 +37 очень
душно
1022.3 1008.5

 

Местоположение метеостанции Шармеллек (Венгрия): широта 46.68 долгота 17.17 высота над уровнем моря 125 м.

В архиве по умолчанию представлена погода в Шармеллеке за последнюю неделю. Архивные данные за месяц целиком и за предыдущие месяцы, начиная с января 2011 года, Вы можете получить, выбрав интересующий диапазон дат из раскрывающегося списка и нажав кнопку "Ввод!".


*Определитесь, кто Вы:
робот инопланетянин человек

Внимание! Время в таблицах - всемирное. Для получения местного времени необходимо прибавить поправку, которая равна 1 ч.

Смотрите также архив погоды в соседних городах и на ближайших метеорологических станциях:

Погода в Надьканиже (Венгрия) (30 км)
Погода в Залаэгерсеге (Венгрия) (35 км)
Погода в Капошваре (Венгрия) (61 км)
Погода в Веспреме (Венгрия) (66 км)
Погода в Сентготтхарде (Венгрия) (70 км)
Погода в Шиофоке (Венгрия) (72 км)
Погода в Вараздине (Хорватия) (74 км)
Погода в Мурска-Соботе (Словения) (76 км)
Погода в Сомбатхее (Венгрия) (77 км)
Погода на Базе ВВС Папа (Венгрия) (80 км)

Пояснения к столбцам:

Ветер - указаны скорость ветра в м/с - средняя за 10 мин, порывы в срок и между сроками (в фигурных скобках) и направление, откуда дует ветер: С - северный, СВ - северо-восточный, В - восточный, ЮВ - юго-восточный, Ю - южный, ЮЗ - юго-западный, З - западный, СЗ - северо-западный.
Видимость - горизонтальная дальность видимости в метрах или километрах. При видимости от 1 до 10 км при отсутствии осадков обычно наблюдается дымка, при ухудшении видимости до 1 км и менее - туман. В сухую погоду видимость может ухудшаться дымом, пылью или мглою.
Явления - указаны атмосферные явления, наблюдавшиеся в срок или в последний час перед сроком; фигурными скобками обозначены явления, наблюдавшиеся между сроками (за 1-3 часа до срока); квадратными скобками обозначены град или гололедные отложения с указанием их диаметра в мм.
Облачность - указаны через наклонную черту общая и нижняя облачность в баллах и высота нижней границы облаков в метрах; квадратными скобками обозначены формы облаков: Ci - перистые, Cs - перисто-слоистые, Cc - перисто-кучевые, Ac - высококучевые, As - высокослоистые, Sc - слоисто-кучевые, Ns - слоисто-дождевые, Cu - кучевые, Cb - кучево-дождевые. Подробнее классификацию облаков см. в Атласе облаков (PDF).
T - Температура воздуха - температура, измеренная на высоте 2 м над землей.
Td - Температура точки росы - температура, при понижении до которой содержащийся в воздухе водяной пар достигнет насыщения.
f - Относительная влажность воздуха - влажноcть воздуха, измеренная на высоте 2 м над землей.
Te - Эффективная температура - температура, которую ощущает одетый по сезону человек в тени. Характеристика душности погоды. При расчете учитывается влияние влажности воздуха и скорости ветра на теплоощущения человека.
Tes - Эффективная температура на солнце - температура, которую ощущает человек, с поправкой на солнечный нагрев. Характеристика знойности погоды. Зависит от высоты солнца над горизонтом, облачности и скорости ветра. Ночью, в пасмурную погоду, а также при ветре 12 м/с и более поправка равна нулю.
P - Атмосферное давление - приведенное к уровню моря атмосферное давление.
Po - Атмосферное давление - измеренное на уровне метеостанции атмосферное давление.
Tmin - Минимальная температура - минимум температуры воздуха на высоте 2 м над землей.
Tmax - Максимальная температура - максимум температуры воздуха на высоте 2 м над землей.
R - Количество осадков - Количество выпавших осадков за период времени, мм. При наведении курсора мыши на число - период времени, за который выпало указанное количество осадков.
R24 - Количество осадков - Количество выпавших осадков за 24 часа, мм.
S - Снежный покров - Высота снежного покрова, см. При наведении курсора мыши на число - состояние снежного покрова и степень покрытия местности в баллах.